Hourly Data Report for January 15, 2021

STE-ANNE-DE-BELLEVUE 1
QUEBEC
Current Station Operator: ECCC - MSC

45°25'38.000" N
73°55'45.000" W
39.00 m
702FHL8
71377
WVQ

Download Data

Hourly Data (January 2021)
Hourly Data Report for January 15, 2021
TIME
LST
Temp Definition
°C
Dew Point Definition
°C
Rel Hum Definition
%
Precip. Amount Definition
mm

Wind Dir Definition
10's deg

Wind Spd Definition
km/h
Visibility Definition
km
Stn Press Definition
kPa
Hmdx Definition


Wind Chill Definition


Weather Definition


00:00 -0.2 -1.0 94 0.0 2 4   100.98   -1 LegendNANA
01:00 -0.5 -1.4 94 0.0 2 6   100.98   -3 LegendNANA
02:00 -0.8 -1.5 95 0.0 2 7   101.05   -3 LegendNANA
03:00 -1.1 -1.7 96 0.0 2 5   101.11   -3 LegendNANA
04:00 -1.3 -1.8 96 0.0 2 5   101.15   -3 LegendNANA
05:00 -1.6 -2.0 97 0.0 3 4   101.17   -3 LegendNANA
06:00 -1.8 -2.1 97 0.0 6 8   101.16   -5 LegendNANA
07:00 -2.0 -2.2 98 0.0 4 6   101.20   -4 LegendNANA
08:00 -2.0 -2.2 99 0.0 1 2   101.27   -3 LegendNANA
09:00 -1.6 -1.7 99 0.2 5 6   101.29   -4 LegendNANA
10:00 -1.3 -1.5 99 0.0 4 8   101.30   -4 LegendNANA
11:00 -0.9 -1.6 95 0.0 5 9   101.24   -4 LegendNANA
12:00 0.0 -2.5 83 0.0 5 6   101.16   -2 LegendNANA
13:00 1.9 -2.0 75 0.0 9 10   101.09     LegendNANA
14:00 2.4 -2.5 70 0.0 11 12   101.08     LegendNANA
15:00 2.3 -2.3 72 0.0 9 13   101.05     LegendNANA
16:00 1.3 -2.3 77 0.0 9 10   101.02     LegendNANA
17:00 1.3 -2.4 76 0.0 9 10   101.02     LegendNANA
18:00 1.0 -2.3 78 0.0 8 7   101.00     LegendNANA
19:00 0.8 -2.5 79 0.0 9 13   101.12     LegendNANA
20:00 1.5 -2.7 74 0.0 10 13   100.98     LegendNANA
21:00 1.7 -2.6 73 0.0 10 16   100.90     LegendNANA
22:00 2.0 -2.4 73 0.0 11 18   100.87     LegendNANA
23:00 1.9 -2.9 71 0.0 11 16   100.83     LegendNANA

Notes on Data Quality.

Legend

  • E = Estimated
  • M = Missing
  • NA = Not Available*
  • [empty] = Indicates an unobserved value
Date modified: